User: anonymous   Login
Location: Jackson
(42.2460°N, 84.4010°W)
Time: 02:48:21
(UTC-05:00)
Language:

A-11 Canister half - Orbit

View from above orbital plane
View from above orbital plane
View from above satellite
View from above satellite

Ground track
Ground track

The orbit is defined by the following mean orbital elements,

1 00053U          26044.28444309 +.00000000 +00000-0 +88624-3 0 00002
2 00053  47.2799   4.5402 0098240  68.7484 292.3764 12.17401523    02
Epoch (UTC): 13 February 2026 06:49:35
Eccentricity: 0.0098240
inclination: 47.2799°
perigee height: 1525 km
apogee height: 1682 km
right ascension of ascending node: 4.5402°
argument of perigee: 68.7484°
revolutions per day: 12.17401523
mean anomaly at epoch: 292.3764°

The dashed part of the orbit path shows where the satellite is in the earth's shadow,  

DLR